Погода в Иннополисе

Россия / Республика Татарстан     55°45′07″N   48°44′40″E
В апреле 2022 года жителям России запретили посещать сайт meteo.paraplan.net по решению Генеральной прокуратуры. Аудитория сайта уменьшилась в 10 раз. Владельцы сайта не видят смысла в поддержке погодного сервера в таких условиях. Сайт будет закрыт в октябре.
темп.,
°C
ветер,
м/с
пор.,
м/с
влажн.,
%
обл.,
%
осадки,
мм/ч
давл.,
гПа
погр.,
м
30 сентября, пт
пт3000:00+8вюв3596100 0.1 1017216
03:00+8в2496100 0.2 1019187
06:00+8вюв3595100 0.1 1021210
09:00+9вюв3490100 0.1 1022269
12:00+10вюв3483100 0.0 1023469
15:00+11вюв4581100 0.0 1024477
18:00+9вюв3785100 0.0 1025309
21:00+10юв4887100 0.0 1025298
1 октября, сб
сб100:00+9юв4887100 0.0 1024279
03:00+9юв4889100 0.0 1024248
06:00+8юв479073 0.0 1024229
09:00+11ююв577642 0.0 1024390
12:00+15ююв566318 0.0 1022738
15:00+16ююв466499 0.0 1021879
18:00+13юв51073100 0.0 1020334
21:00+13ююв41174100 0.0 1019352
2 октября, вс
вс200:00+12ююв41279100 0.0 1018327
03:00+11ююв41382100 0.0 1016319
06:00+12ююв5148049 0.0 1014423
09:00+16ю71572100 0.1 1013666
12:00+18ю81369100 0.4 1012943
15:00+19ююз7117196 0.6 10111141
18:00+15ю51185100 1.0 1012342
21:00+14ю51092100 1.1 1012285
3 октября, пн
пн300:00+13ююв379599 0.1 1012204
03:00+14ююв41193100 1.1 1012362
06:00+15ююв51391100 0.2 1011345
09:00+17ююв7148095 0.3 1012586
12:00+19ю71459100 0.0 1013831
15:00+18ю81655100 0.0 1014842
18:00+17ю81752100 0.0 1015745
21:00+16ююв81847100 0.0 1016814
4 октября, вт
вт400:00+16ю81742100 0.0 1017843
03:00+14ю81640100 0.0 1018820
06:00+13ююв81538100 0.0 1019673
09:00+14ююв81540100 0.0 1020801
12:00+15ююв81337100 0.0 1021970
15:00+14ю71440100 0.0 10221139
18:00+13ю61445100 0.0 10241156
21:00+10ю61479100 1.1 1025860